When you browse on this site, cookies collect data to enhance your experience and personalize the content and advertising you see.
Visit our Privacy Policy to learn more. By continuing to use the site, you agree to this use of cookies and data.
  • In Hungary
  • List of Countries
  • For 7 days
  • Water Temperature
  • Weather Map
  • News
  • Weather Widgets
  • user-avatar
    Login

    Hourly Weather Gnilec

    Today, 12 December, Thursday

    Time Temperature Precipitation Wind Pressure Humidity
    00:00 -3°C° 0 mm 4 mps 746 mmHg 83%
    01:00 -3°C° 0 mm 4 mps 745 mmHg 83%
    02:00 -2°C° 0 mm 4 mps 745 mmHg 83%
    03:00 -2°C° 0.1 mm 5 mps 744 mmHg 87%
    04:00 -1°C° 0.1 mm 5 mps 743 mmHg 92%
    05:00 -1°C° 0.1 mm 5 mps 743 mmHg 96%
    06:00 -1°C° 0.4 mm 5 mps 742 mmHg 96%
    07:00 -1°C° 0.4 mm 4 mps 742 mmHg 96%
    08:00 0°C° 0.4 mm 4 mps 742 mmHg 96%
    09:00 -1°C° 0.1 mm 4 mps 742 mmHg 89%
    10:00 -1°C° 0.1 mm 5 mps 741 mmHg 82%
    11:00 -2°C° 0.1 mm 6 mps 741 mmHg 75%
    12:00 0°C° 0 mm 5 mps 741 mmHg 72%
    13:00 0°C° 0 mm 5 mps 742 mmHg 69%
    14:00 0°C° 0 mm 4 mps 742 mmHg 67%
    15:00 0°C° 0 mm 4 mps 741 mmHg 74%
    16:00 0°C° 0 mm 4 mps 741 mmHg 81%
    17:00 0°C° 0 mm 4 mps 741 mmHg 88%
    18:00 0°C° 0 mm 4 mps 741 mmHg 89%
    19:00 -1°C° 0 mm 4 mps 741 mmHg 91%
    20:00 -1°C° 0 mm 4 mps 741 mmHg 93%
    21:00 -1°C° 0 mm 4 mps 741 mmHg 93%
    22:00 -1°C° 0 mm 4 mps 740 mmHg 93%
    23:00 -1°C° 0 mm 4 mps 740 mmHg 93%

    Tomorrow, 13 December, Friday

    Time Temperature Precipitation Wind Pressure Humidity
    00:00 -1°C° 0 mm 4 mps 740 mmHg 93%
    01:00 -1°C° 0 mm 4 mps 739 mmHg 93%
    02:00 0°C° 0 mm 4 mps 739 mmHg 92%
    03:00 0°C° 0 mm 4 mps 738 mmHg 92%
    04:00 0°C° 0 mm 4 mps 737 mmHg 92%
    05:00 0°C° 0 mm 4 mps 737 mmHg 91%
    06:00 0°C° 0 mm 5 mps 736 mmHg 90%
    07:00 +1°C° 0 mm 5 mps 736 mmHg 89%
    08:00 +1°C° 0 mm 5 mps 736 mmHg 88%
    09:00 +1°C° 0 mm 5 mps 735 mmHg 86%
    10:00 +1°C° 0 mm 6 mps 735 mmHg 85%
    11:00 +2°C° 0 mm 6 mps 735 mmHg 83%
    12:00 +2°C° 0 mm 6 mps 734 mmHg 82%
    13:00 +2°C° 0 mm 6 mps 734 mmHg 80%
    14:00 +3°C° 0 mm 6 mps 734 mmHg 79%
    15:00 +2°C° 0 mm 6 mps 733 mmHg 79%
    16:00 +2°C° 0 mm 6 mps 733 mmHg 79%
    17:00 +2°C° 0 mm 6 mps 733 mmHg 80%
    18:00 +2°C° 0 mm 6 mps 733 mmHg 80%
    19:00 +2°C° 0 mm 7 mps 733 mmHg 80%
    20:00 +2°C° 0 mm 7 mps 733 mmHg 80%
    21:00 +2°C° 0 mm 7 mps 733 mmHg 80%
    22:00 +2°C° 0 mm 7 mps 733 mmHg 80%
    23:00 +2°C° 0 mm 7 mps 733 mmHg 80%

    Day after tomorrow, 14 December, Saturday

    Time Temperature Precipitation Wind Pressure Humidity
    00:00 +2°C° 0 mm 7 mps 733 mmHg 81%
    01:00 +2°C° 0 mm 6 mps 734 mmHg 82%
    02:00 +2°C° 0 mm 6 mps 734 mmHg 82%
    03:00 +2°C° 0 mm 6 mps 734 mmHg 83%
    04:00 +2°C° 0 mm 6 mps 734 mmHg 84%
    05:00 +2°C° 0 mm 6 mps 734 mmHg 85%
    06:00 +2°C° 0 mm 6 mps 734 mmHg 85%
    07:00 +2°C° 0 mm 6 mps 735 mmHg 86%
    08:00 +2°C° 0 mm 5 mps 735 mmHg 86%
    09:00 +2°C° 0.3 mm 5 mps 735 mmHg 87%
    10:00 +2°C° 0.3 mm 5 mps 735 mmHg 88%
    11:00 +2°C° 0.3 mm 5 mps 735 mmHg 89%
    12:00 +3°C° 0.3 mm 4 mps 735 mmHg 88%
    13:00 +4°C° 0.3 mm 4 mps 735 mmHg 87%
    14:00 +4°C° 0.3 mm 4 mps 735 mmHg 86%
    15:00 +4°C° 0 mm 4 mps 736 mmHg 86%
    16:00 +3°C° 0 mm 4 mps 736 mmHg 85%
    17:00 +3°C° 0 mm 4 mps 736 mmHg 85%
    18:00 +1°C° 0 mm 4 mps 736 mmHg 84%
    19:00 +1°C° 0 mm 4 mps 736 mmHg 83%
    20:00 +1°C° 0 mm 4 mps 737 mmHg 82%
    21:00 +1°C° 0 mm 5 mps 737 mmHg 82%
    22:00 +1°C° 0 mm 5 mps 737 mmHg 82%
    23:00 +1°C° 0 mm 5 mps 737 mmHg 82%

    15 December, Sunday

    Time Temperature Precipitation Wind Pressure Humidity
    00:00 +1°C° 0.2 mm 6 mps 737 mmHg 85%
    01:00 +1°C° 0.2 mm 6 mps 737 mmHg 89%
    02:00 +1°C° 0.2 mm 6 mps 737 mmHg 92%
    03:00 +1°C° 0 mm 6 mps 738 mmHg 91%
    04:00 +1°C° 0 mm 5 mps 738 mmHg 90%
    05:00 +1°C° 0 mm 5 mps 739 mmHg 88%
    06:00 +1°C° 0 mm 5 mps 739 mmHg 89%
    07:00 +1°C° 0 mm 5 mps 739 mmHg 89%
    08:00 +1°C° 0 mm 4 mps 740 mmHg 89%
    09:00 +1°C° 0 mm 5 mps 740 mmHg 86%
    10:00 +2°C° 0 mm 5 mps 740 mmHg 83%
    11:00 +2°C° 0 mm 5 mps 740 mmHg 81%
    12:00 +3°C° 0 mm 5 mps 740 mmHg 80%
    13:00 +3°C° 0 mm 5 mps 740 mmHg 78%
    14:00 +5°C° 0 mm 5 mps 740 mmHg 77%
    15:00 +5°C° 1.1 mm 5 mps 740 mmHg 81%
    16:00 +4°C° 1.1 mm 6 mps 739 mmHg 84%
    17:00 +4°C° 1.1 mm 6 mps 739 mmHg 87%
    18:00 +4°C° 0 mm 7 mps 739 mmHg 79%
    19:00 +5°C° 0 mm 8 mps 739 mmHg 72%
    20:00 +6°C° 0 mm 8 mps 740 mmHg 64%
    21:00 +5°C° 0.1 mm 8 mps 740 mmHg 69%
    22:00 +5°C° 0.1 mm 8 mps 741 mmHg 74%
    23:00 +5°C° 0.1 mm 7 mps 742 mmHg 79%

    16 December, Monday

    Time Temperature Precipitation Wind Pressure Humidity
    00:00 +4°C° 0 mm 7 mps 743 mmHg 77%
    01:00 +3°C° 0 mm 7 mps 744 mmHg 74%
    02:00 +2°C° 0 mm 6 mps 744 mmHg 72%
    03:00 +2°C° 0 mm 6 mps 745 mmHg 74%
    04:00 +1°C° 0 mm 5 mps 746 mmHg 76%
    05:00 +1°C° 0 mm 5 mps 747 mmHg 77%
    06:00 0°C° 0 mm 5 mps 747 mmHg 80%
    07:00 0°C° 0 mm 4 mps 748 mmHg 83%
    08:00 0°C° 0 mm 4 mps 748 mmHg 85%
    09:00 0°C° 0 mm 4 mps 748 mmHg 84%
    10:00 +1°C° 0 mm 4 mps 749 mmHg 82%
    11:00 +1°C° 0 mm 4 mps 750 mmHg 80%
    12:00 +3°C° 0 mm 4 mps 749 mmHg 78%
    13:00 +3°C° 0 mm 3 mps 749 mmHg 76%
    14:00 +3°C° 0 mm 3 mps 749 mmHg 74%
    15:00 +3°C° 0 mm 3 mps 748 mmHg 76%
    16:00 +3°C° 0 mm 4 mps 748 mmHg 78%
    17:00 +3°C° 0 mm 4 mps 748 mmHg 79%
    18:00 +3°C° 0 mm 4 mps 748 mmHg 80%
    19:00 +3°C° 0 mm 4 mps 747 mmHg 80%
    20:00 +3°C° 0 mm 4 mps 747 mmHg 80%
    21:00 +3°C° 0 mm 4 mps 747 mmHg 83%
    22:00 +3°C° 0 mm 3 mps 747 mmHg 87%
    23:00 +4°C° 0 mm 2 mps 747 mmHg 90%

    17 December, Tuesday

    Time Temperature Precipitation Wind Pressure Humidity
    00:00 +3°C° 0 mm 2 mps 747 mmHg 91%
    01:00 +3°C° 0 mm 2 mps 746 mmHg 92%
    02:00 +3°C° 0 mm 2 mps 746 mmHg 93%
    03:00 +3°C° 0 mm 2 mps 746 mmHg 93%
    04:00 +3°C° 0 mm 2 mps 746 mmHg 93%
    05:00 +3°C° 0 mm 2 mps 746 mmHg 93%
    06:00 +3°C° 0 mm 2 mps 746 mmHg 93%
    07:00 +2°C° 0 mm 2 mps 747 mmHg 93%
    08:00 +2°C° 0 mm 2 mps 747 mmHg 94%
    09:00 +3°C° 0 mm 2 mps 747 mmHg 92%
    10:00 +3°C° 0 mm 2 mps 747 mmHg 90%
    11:00 +4°C° 0 mm 2 mps 747 mmHg 89%
    12:00 +4°C° 0 mm 2 mps 747 mmHg 87%
    13:00 +5°C° 0 mm 2 mps 747 mmHg 85%
    14:00 +5°C° 0 mm 2 mps 747 mmHg 83%
    15:00 +5°C° 0 mm 2 mps 747 mmHg 85%
    16:00 +4°C° 0 mm 2 mps 747 mmHg 88%
    17:00 +4°C° 0 mm 2 mps 747 mmHg 90%
    18:00 +4°C° 0 mm 2 mps 746 mmHg 91%
    19:00 +4°C° 0 mm 2 mps 746 mmHg 92%
    20:00 +4°C° 0 mm 2 mps 746 mmHg 93%
    21:00 +4°C° 0 mm 2 mps 746 mmHg 92%
    22:00 +4°C° 0 mm 2 mps 746 mmHg 92%
    23:00 +4°C° 0 mm 2 mps 745 mmHg 92%
    Show more